Year,Month,Day,Hour,Minute,Value (Times are PST for temperature in C)
2012,03,26,00,00,6.60
2012,03,26,00,01,6.50
2012,03,26,00,02,6.50
2012,03,26,00,03,6.40
2012,03,26,00,04,6.40
2012,03,26,00,05,6.40
2012,03,26,00,06,6.40
2012,03,26,00,07,6.40
2012,03,26,00,08,6.40
2012,03,26,00,09,6.40
2012,03,26,00,10,6.40
2012,03,26,00,11,6.30
2012,03,26,00,12,6.30
2012,03,26,00,13,6.20
2012,03,26,00,14,6.10
2012,03,26,00,15,6.10
2012,03,26,00,16,6.00
2012,03,26,00,17,5.90
2012,03,26,00,18,5.90
2012,03,26,00,19,5.80
2012,03,26,00,20,5.80
2012,03,26,00,21,5.70
2012,03,26,00,22,5.60
2012,03,26,00,23,5.60
2012,03,26,00,24,5.50
2012,03,26,00,25,5.40
2012,03,26,00,26,5.40
2012,03,26,00,27,5.30
2012,03,26,00,28,5.30
2012,03,26,00,29,5.30
2012,03,26,00,30,5.20
2012,03,26,00,31,5.20
2012,03,26,00,32,5.20
2012,03,26,00,33,5.10
2012,03,26,00,34,5.10
2012,03,26,00,35,5.10
2012,03,26,00,36,5.00
2012,03,26,00,37,5.00
2012,03,26,00,38,4.90
2012,03,26,00,39,4.90
2012,03,26,00,40,4.90
2012,03,26,00,41,4.90
2012,03,26,00,42,4.80
2012,03,26,00,43,4.80
2012,03,26,00,44,4.80
2012,03,26,00,45,4.80
2012,03,26,00,46,4.80
2012,03,26,00,47,4.80
2012,03,26,00,48,4.80
2012,03,26,00,49,4.80
2012,03,26,00,50,4.80
2012,03,26,00,51,4.80
2012,03,26,00,52,4.80
2012,03,26,00,53,4.80
2012,03,26,00,54,4.70
2012,03,26,00,55,4.70
2012,03,26,00,56,4.70
2012,03,26,00,57,4.70
2012,03,26,00,58,4.60
2012,03,26,00,59,4.60
2012,03,26,01,00,4.60
2012,03,26,01,01,4.50
2012,03,26,01,02,4.50
2012,03,26,01,03,4.40
2012,03,26,01,04,4.40
2012,03,26,01,05,4.40
2012,03,26,01,06,4.30
2012,03,26,01,07,4.30
2012,03,26,01,08,4.30
2012,03,26,01,09,4.30
2012,03,26,01,10,4.20
2012,03,26,01,11,4.20
2012,03,26,01,12,4.20
2012,03,26,01,13,4.20
2012,03,26,01,14,4.20
2012,03,26,01,15,4.20
2012,03,26,01,16,4.10
2012,03,26,01,17,4.10
2012,03,26,01,18,4.10
2012,03,26,01,19,4.10
2012,03,26,01,20,4.10
2012,03,26,01,21,4.00
2012,03,26,01,22,4.00
2012,03,26,01,23,4.00
2012,03,26,01,24,4.00
2012,03,26,01,25,4.00
2012,03,26,01,26,3.90
2012,03,26,01,27,3.90
2012,03,26,01,28,3.90
2012,03,26,01,29,3.90
2012,03,26,01,30,3.80
2012,03,26,01,31,3.80
2012,03,26,01,32,3.80
2012,03,26,01,33,3.80
2012,03,26,01,34,3.70
2012,03,26,01,35,3.70
2012,03,26,01,36,3.70
2012,03,26,01,37,3.70
2012,03,26,01,38,3.70
2012,03,26,01,39,3.60
2012,03,26,01,40,3.60
2012,03,26,01,41,3.60
2012,03,26,01,42,3.60
2012,03,26,01,43,3.60
2012,03,26,01,44,3.60
2012,03,26,01,45,3.60
2012,03,26,01,46,3.60
2012,03,26,01,47,3.50
2012,03,26,01,48,3.50
2012,03,26,01,49,3.40
2012,03,26,01,50,3.40
2012,03,26,01,51,3.40
2012,03,26,01,52,3.40
2012,03,26,01,53,3.30
2012,03,26,01,54,3.30
2012,03,26,01,55,3.30
2012,03,26,01,56,3.30
2012,03,26,01,57,3.30
2012,03,26,01,58,3.30
2012,03,26,01,59,3.20
2012,03,26,02,00,3.20
2012,03,26,02,01,3.20
2012,03,26,02,02,3.20
2012,03,26,02,03,3.20
2012,03,26,02,04,3.20
2012,03,26,02,05,3.20
2012,03,26,02,06,3.10
2012,03,26,02,07,3.10
2012,03,26,02,08,3.10
2012,03,26,02,09,3.10
2012,03,26,02,10,3.10
2012,03,26,02,11,3.10
2012,03,26,02,12,3.10
2012,03,26,02,13,3.10
2012,03,26,02,14,3.10
2012,03,26,02,15,3.10
2012,03,26,02,16,3.20
2012,03,26,02,17,3.20
2012,03,26,02,18,3.20
2012,03,26,02,19,3.20
2012,03,26,02,20,3.20
2012,03,26,02,21,3.20
2012,03,26,02,22,3.30
2012,03,26,02,23,3.30
2012,03,26,02,24,3.40
2012,03,26,02,25,3.40
2012,03,26,02,26,3.40
2012,03,26,02,27,3.50
2012,03,26,02,28,3.60
2012,03,26,02,29,3.60
2012,03,26,02,30,3.60
2012,03,26,02,31,3.70
2012,03,26,02,32,3.70
2012,03,26,02,33,3.70
2012,03,26,02,34,3.70
2012,03,26,02,35,3.70
2012,03,26,02,36,3.70
2012,03,26,02,37,3.70
2012,03,26,02,38,3.70
2012,03,26,02,39,3.80
2012,03,26,02,40,3.80
2012,03,26,02,41,3.80
2012,03,26,02,42,3.80
2012,03,26,02,43,3.80
2012,03,26,02,44,3.90
2012,03,26,02,45,3.90
2012,03,26,02,46,4.00
2012,03,26,02,47,4.00
2012,03,26,02,48,4.00
2012,03,26,02,49,4.00
2012,03,26,02,50,4.10
2012,03,26,02,51,4.10
2012,03,26,02,52,4.10
2012,03,26,02,53,4.10
2012,03,26,02,54,4.10
2012,03,26,02,55,4.10
2012,03,26,02,56,4.10
2012,03,26,02,57,4.10
2012,03,26,02,58,4.10
2012,03,26,02,59,4.10
2012,03,26,03,00,4.10
2012,03,26,03,01,4.10
2012,03,26,03,02,4.10
2012,03,26,03,03,4.20
2012,03,26,03,04,4.20
2012,03,26,03,05,4.20
2012,03,26,03,06,4.20
2012,03,26,03,07,4.20
2012,03,26,03,08,4.20
2012,03,26,03,09,4.30
2012,03,26,03,10,4.30
2012,03,26,03,11,4.30
2012,03,26,03,12,4.30
2012,03,26,03,13,4.30
2012,03,26,03,14,4.40
2012,03,26,03,15,4.40
2012,03,26,03,16,4.40
2012,03,26,03,17,4.40
2012,03,26,03,18,4.50
2012,03,26,03,19,4.50
2012,03,26,03,20,4.60
2012,03,26,03,21,4.60
2012,03,26,03,22,4.60
2012,03,26,03,23,4.60
2012,03,26,03,24,4.60
2012,03,26,03,25,4.70
2012,03,26,03,26,4.70
2012,03,26,03,27,4.70
2012,03,26,03,28,4.70
2012,03,26,03,29,4.70
2012,03,26,03,30,4.70
2012,03,26,03,31,4.80
2012,03,26,03,32,4.80
2012,03,26,03,33,4.80
2012,03,26,03,34,4.80
2012,03,26,03,35,4.90
2012,03,26,03,36,4.90
2012,03,26,03,37,4.90
2012,03,26,03,38,5.00
2012,03,26,03,39,5.00
2012,03,26,03,40,5.00
2012,03,26,03,41,5.00
2012,03,26,03,42,5.00
2012,03,26,03,43,5.00
2012,03,26,03,44,5.00
2012,03,26,03,45,5.00
2012,03,26,03,46,5.00
2012,03,26,03,47,4.90
2012,03,26,03,48,4.90
2012,03,26,03,49,4.90
2012,03,26,03,50,4.90
2012,03,26,03,51,4.90
2012,03,26,03,52,4.90
2012,03,26,03,53,4.80
2012,03,26,03,54,4.80
2012,03,26,03,55,4.80
2012,03,26,03,56,4.80
2012,03,26,03,57,4.80
2012,03,26,03,58,4.80
2012,03,26,03,59,4.80
2012,03,26,04,00,4.80
2012,03,26,04,01,4.80
2012,03,26,04,02,4.70
2012,03,26,04,03,4.70
2012,03,26,04,04,4.70
2012,03,26,04,05,4.70
2012,03,26,04,06,4.70
2012,03,26,04,07,4.70
2012,03,26,04,08,4.70
2012,03,26,04,09,4.70
2012,03,26,04,10,4.60
2012,03,26,04,11,4.60
2012,03,26,04,12,4.60
2012,03,26,04,13,4.60
2012,03,26,04,14,4.60
2012,03,26,04,15,4.50
2012,03,26,04,16,4.50
2012,03,26,04,17,4.50
2012,03,26,04,18,4.40
2012,03,26,04,19,4.40
2012,03,26,04,20,4.40
2012,03,26,04,21,4.40
2012,03,26,04,22,4.40
2012,03,26,04,23,4.40
2012,03,26,04,24,4.30
2012,03,26,04,25,4.30
2012,03,26,04,26,4.30
2012,03,26,04,27,4.30
2012,03,26,04,28,4.30
2012,03,26,04,29,4.30
2012,03,26,04,30,4.30
2012,03,26,04,31,4.30
2012,03,26,04,32,4.30
2012,03,26,04,33,4.30
2012,03,26,04,34,4.30
2012,03,26,04,35,4.30
2012,03,26,04,36,4.30
2012,03,26,04,37,4.30
2012,03,26,04,38,4.30
2012,03,26,04,39,4.30
2012,03,26,04,40,4.30
2012,03,26,04,41,4.30
2012,03,26,04,42,4.30
2012,03,26,04,43,4.30
2012,03,26,04,44,4.20
2012,03,26,04,45,4.20
2012,03,26,04,46,4.10
2012,03,26,04,47,4.10
2012,03,26,04,48,4.10
2012,03,26,04,49,4.10
2012,03,26,04,50,4.10
2012,03,26,04,51,4.10
2012,03,26,04,52,4.10
2012,03,26,04,53,4.10
2012,03,26,04,54,4.10
2012,03,26,04,55,4.10
2012,03,26,04,56,4.10
2012,03,26,04,57,4.10
2012,03,26,04,58,4.10
2012,03,26,04,59,4.00
2012,03,26,05,00,4.00
2012,03,26,05,01,4.00
2012,03,26,05,02,4.00
2012,03,26,05,03,3.90
2012,03,26,05,04,3.90
2012,03,26,05,05,3.90
2012,03,26,05,06,3.90
2012,03,26,05,07,4.00
2012,03,26,05,08,4.00
2012,03,26,05,09,4.00
2012,03,26,05,10,4.00
2012,03,26,05,11,4.00
2012,03,26,05,12,4.00
2012,03,26,05,13,4.00
2012,03,26,05,14,4.00
2012,03,26,05,15,4.00
2012,03,26,05,16,4.10
2012,03,26,05,17,4.10
2012,03,26,05,18,4.10
2012,03,26,05,19,4.10
2012,03,26,05,20,4.10
2012,03,26,05,21,4.10
2012,03,26,05,22,4.10
2012,03,26,05,23,4.10
2012,03,26,05,24,4.10
2012,03,26,05,25,4.10
2012,03,26,05,26,4.10
2012,03,26,05,27,4.10
2012,03,26,05,28,4.10
2012,03,26,05,29,4.10
2012,03,26,05,30,4.10
2012,03,26,05,31,4.10
2012,03,26,05,32,4.10
2012,03,26,05,33,4.10
2012,03,26,05,34,4.10
2012,03,26,05,35,4.00
2012,03,26,05,36,4.00
2012,03,26,05,37,4.00
2012,03,26,05,38,3.90
2012,03,26,05,39,3.90
2012,03,26,05,40,3.90
2012,03,26,05,41,3.90
2012,03,26,05,42,4.00
2012,03,26,05,43,3.90
2012,03,26,05,44,3.90
2012,03,26,05,45,3.90
2012,03,26,05,46,3.90
2012,03,26,05,47,3.90
2012,03,26,05,48,3.80
2012,03,26,05,49,3.80
2012,03,26,05,50,3.80
2012,03,26,05,51,3.80
2012,03,26,05,52,3.80
2012,03,26,05,53,3.80
2012,03,26,05,54,3.80
2012,03,26,05,55,3.70
2012,03,26,05,56,3.70
2012,03,26,05,57,3.70
2012,03,26,05,58,3.70
2012,03,26,05,59,3.80
2012,03,26,06,00,3.80
2012,03,26,06,01,3.80
2012,03,26,06,02,3.80
2012,03,26,06,03,3.80
2012,03,26,06,04,3.80
2012,03,26,06,05,3.80
2012,03,26,06,06,3.80
2012,03,26,06,07,3.70
2012,03,26,06,08,3.70
2012,03,26,06,09,3.70
2012,03,26,06,10,3.70
2012,03,26,06,11,3.70
2012,03,26,06,12,3.80
2012,03,26,06,13,3.80
2012,03,26,06,14,3.90
2012,03,26,06,15,3.90
2012,03,26,06,16,3.90
2012,03,26,06,17,4.00
2012,03,26,06,18,4.00
2012,03,26,06,19,4.00
2012,03,26,06,20,4.00
2012,03,26,06,21,4.00
2012,03,26,06,22,4.00
2012,03,26,06,23,3.90
2012,03,26,06,24,3.90
2012,03,26,06,25,3.90
2012,03,26,06,26,3.90
2012,03,26,06,27,3.80
2012,03,26,06,28,3.80
2012,03,26,06,29,3.80
2012,03,26,06,30,3.80
2012,03,26,06,31,3.80
2012,03,26,06,32,3.80
2012,03,26,06,33,3.80
2012,03,26,06,34,3.80
2012,03,26,06,35,3.80
2012,03,26,06,36,3.80
2012,03,26,06,37,3.80
2012,03,26,06,38,3.70
2012,03,26,06,39,3.70
2012,03,26,06,40,3.70
2012,03,26,06,41,3.60
2012,03,26,06,42,3.60
2012,03,26,06,43,3.60
2012,03,26,06,44,3.60
2012,03,26,06,45,3.60
2012,03,26,06,46,3.60
2012,03,26,06,47,3.60
2012,03,26,06,48,3.50
2012,03,26,06,49,3.50
2012,03,26,06,50,3.50
2012,03,26,06,51,3.50
2012,03,26,06,52,3.50
2012,03,26,06,53,3.50
2012,03,26,06,54,3.50
2012,03,26,06,55,3.50
2012,03,26,06,56,3.50
2012,03,26,06,57,3.50
2012,03,26,06,58,3.50
2012,03,26,06,59,3.50
2012,03,26,07,00,3.50
2012,03,26,07,01,3.50
2012,03,26,07,02,3.50
2012,03,26,07,03,3.50
2012,03,26,07,04,3.50
2012,03,26,07,05,3.60
2012,03,26,07,06,3.60
2012,03,26,07,07,3.60
2012,03,26,07,08,3.60
2012,03,26,07,09,3.70
2012,03,26,07,10,3.70
2012,03,26,07,11,3.70
2012,03,26,07,12,3.80
2012,03,26,07,13,3.80
2012,03,26,07,14,3.80
2012,03,26,07,15,3.90
2012,03,26,07,16,3.90
2012,03,26,07,17,3.90
2012,03,26,07,18,3.90
2012,03,26,07,19,3.90
2012,03,26,07,20,4.00
2012,03,26,07,21,4.00
2012,03,26,07,22,4.10
2012,03,26,07,23,4.10
2012,03,26,07,24,4.20
2012,03,26,07,25,4.20
2012,03,26,07,26,4.20
2012,03,26,07,27,4.30
2012,03,26,07,28,4.30
2012,03,26,07,29,4.30
2012,03,26,07,30,4.30
2012,03,26,07,31,4.30
2012,03,26,07,32,4.30
2012,03,26,07,33,4.30
2012,03,26,07,34,4.30
2012,03,26,07,35,4.20
2012,03,26,07,36,4.20
2012,03,26,07,37,4.20
2012,03,26,07,38,4.20
2012,03,26,07,39,4.20
2012,03,26,07,40,4.20
2012,03,26,07,41,4.20
2012,03,26,07,42,4.20
2012,03,26,07,43,4.20
2012,03,26,07,44,4.30
2012,03,26,07,45,4.30
2012,03,26,07,46,4.40
2012,03,26,07,47,4.40
2012,03,26,07,48,4.40
2012,03,26,07,49,4.50
2012,03,26,07,50,4.50
2012,03,26,07,51,4.50
2012,03,26,07,52,4.60
2012,03,26,07,53,4.60
2012,03,26,07,54,4.70
2012,03,26,07,55,4.70
2012,03,26,07,56,4.70
2012,03,26,07,57,4.70
2012,03,26,07,58,4.70
2012,03,26,07,59,4.80
2012,03,26,08,00,4.80
2012,03,26,08,01,4.80
2012,03,26,08,02,4.80
2012,03,26,08,03,4.80
2012,03,26,08,04,4.80
2012,03,26,08,05,4.80
2012,03,26,08,06,4.80
2012,03,26,08,07,4.80
2012,03,26,08,08,4.80
2012,03,26,08,09,4.80
2012,03,26,08,10,4.90
2012,03,26,08,11,4.90
2012,03,26,08,12,4.90
2012,03,26,08,13,4.90
2012,03,26,08,14,4.90
2012,03,26,08,15,4.90
2012,03,26,08,16,4.90
2012,03,26,08,17,5.00
2012,03,26,08,18,5.00
2012,03,26,08,19,5.10
2012,03,26,08,20,5.10
2012,03,26,08,21,5.10
2012,03,26,08,22,5.20
2012,03,26,08,23,5.20
2012,03,26,08,24,5.20
2012,03,26,08,25,5.20
2012,03,26,08,26,5.20
2012,03,26,08,27,5.20
2012,03,26,08,28,5.20
2012,03,26,08,29,5.20
2012,03,26,08,30,5.20
2012,03,26,08,31,5.20
2012,03,26,08,32,5.20
2012,03,26,08,33,5.20
2012,03,26,08,34,5.20
2012,03,26,08,35,5.20
2012,03,26,08,36,5.20
2012,03,26,08,37,5.20
2012,03,26,08,38,5.20
2012,03,26,08,39,5.20
2012,03,26,08,40,5.20
2012,03,26,08,41,5.20
2012,03,26,08,42,5.20
2012,03,26,08,43,5.30
2012,03,26,08,44,5.30
2012,03,26,08,45,5.30
2012,03,26,08,46,5.30
2012,03,26,08,47,5.30
2012,03,26,08,48,5.30
2012,03,26,08,49,5.30
2012,03,26,08,50,5.40
2012,03,26,08,51,5.40
2012,03,26,08,52,5.40
2012,03,26,08,53,5.40
2012,03,26,08,54,5.50
2012,03,26,08,55,5.50
2012,03,26,08,56,5.50
2012,03,26,08,57,5.50
2012,03,26,08,58,5.60
2012,03,26,08,59,5.60
2012,03,26,09,00,5.60
2012,03,26,09,01,5.70
2012,03,26,09,02,5.70
2012,03,26,09,03,5.70
2012,03,26,09,04,5.70
2012,03,26,09,05,5.80
2012,03,26,09,06,5.80
2012,03,26,09,07,5.80
2012,03,26,09,08,5.80
2012,03,26,09,09,5.80
2012,03,26,09,10,5.80
2012,03,26,09,11,5.80
2012,03,26,09,12,5.80
2012,03,26,09,13,5.90
2012,03,26,09,14,5.90
2012,03,26,09,15,5.90
2012,03,26,09,16,5.90
2012,03,26,09,17,5.90
2012,03,26,09,18,5.90
2012,03,26,09,19,6.00
2012,03,26,09,20,6.00
2012,03,26,09,21,6.00
2012,03,26,09,22,6.00
2012,03,26,09,23,6.10
2012,03,26,09,24,6.10
2012,03,26,09,25,6.10
2012,03,26,09,26,6.10
2012,03,26,09,27,6.10
2012,03,26,09,28,6.10
2012,03,26,09,29,6.10
2012,03,26,09,30,6.10
2012,03,26,09,31,6.10
2012,03,26,09,32,6.10
2012,03,26,09,33,6.20
2012,03,26,09,34,6.20
2012,03,26,09,35,6.20
2012,03,26,09,36,6.20
2012,03,26,09,37,6.20
2012,03,26,09,38,6.20
2012,03,26,09,39,6.20
2012,03,26,09,40,6.20
2012,03,26,09,41,6.20
2012,03,26,09,42,6.30
2012,03,26,09,43,6.30
2012,03,26,09,44,6.30
2012,03,26,09,45,6.30
2012,03,26,09,46,6.40
2012,03,26,09,47,6.40
2012,03,26,09,48,6.40
2012,03,26,09,49,6.40
2012,03,26,09,50,6.40
2012,03,26,09,51,6.40
2012,03,26,09,52,6.40
2012,03,26,09,53,6.40
2012,03,26,09,54,6.40
2012,03,26,09,55,6.40
2012,03,26,09,56,6.40
2012,03,26,09,57,6.40
2012,03,26,09,58,6.40
2012,03,26,09,59,6.40
2012,03,26,10,00,6.40
2012,03,26,10,01,6.40
2012,03,26,10,02,6.50
2012,03,26,10,03,6.50
2012,03,26,10,04,6.50
2012,03,26,10,05,6.50
2012,03,26,10,06,6.60
2012,03,26,10,07,6.60
2012,03,26,10,08,6.60
2012,03,26,10,09,6.60
2012,03,26,10,10,6.60
2012,03,26,10,11,6.70
2012,03,26,10,12,6.70
2012,03,26,10,13,6.70
2012,03,26,10,14,6.70
2012,03,26,10,15,6.70
2012,03,26,10,16,6.70
2012,03,26,10,17,6.80
2012,03,26,10,18,6.80
2012,03,26,10,19,6.80
2012,03,26,10,20,6.80
2012,03,26,10,21,6.80
2012,03,26,10,22,6.80
2012,03,26,10,23,6.80
2012,03,26,10,24,6.80
2012,03,26,10,25,6.90
2012,03,26,10,26,6.90
2012,03,26,10,27,6.90
2012,03,26,10,28,6.90
2012,03,26,10,29,6.90
2012,03,26,10,30,6.90
2012,03,26,10,31,6.90
2012,03,26,10,32,6.90
2012,03,26,10,33,7.00
2012,03,26,10,34,7.00
2012,03,26,10,35,7.00
2012,03,26,10,36,7.10
2012,03,26,10,37,7.10
2012,03,26,10,38,7.10
2012,03,26,10,39,7.10
2012,03,26,10,40,7.10
2012,03,26,10,41,7.20
2012,03,26,10,42,7.20
2012,03,26,10,43,7.20
2012,03,26,10,44,7.20
2012,03,26,10,45,7.20
2012,03,26,10,46,7.30
2012,03,26,10,47,7.30
2012,03,26,10,48,7.30
2012,03,26,10,49,7.30
2012,03,26,10,50,7.30
2012,03,26,10,51,7.40
2012,03,26,10,52,7.40
2012,03,26,10,53,7.40
2012,03,26,10,54,7.40
2012,03,26,10,55,7.40
2012,03,26,10,56,7.40
2012,03,26,10,57,7.40
2012,03,26,10,58,7.40
2012,03,26,10,59,7.40
2012,03,26,11,00,7.40
2012,03,26,11,01,7.40
2012,03,26,11,02,7.40
2012,03,26,11,03,7.40
2012,03,26,11,04,7.40
2012,03,26,11,05,7.40
2012,03,26,11,06,7.40
2012,03,26,11,07,7.40
2012,03,26,11,08,7.40
2012,03,26,11,09,7.40
2012,03,26,11,10,7.40
2012,03,26,11,11,7.40
2012,03,26,11,12,7.40
2012,03,26,11,13,7.40
2012,03,26,11,14,7.40
2012,03,26,11,15,7.40
2012,03,26,11,16,7.40
2012,03,26,11,17,7.40
2012,03,26,11,18,7.40
2012,03,26,11,19,7.40
2012,03,26,11,20,7.50
2012,03,26,11,21,7.50
2012,03,26,11,22,7.50
2012,03,26,11,23,7.50
2012,03,26,11,24,7.50
2012,03,26,11,25,7.60
2012,03,26,11,26,7.60
2012,03,26,11,27,7.60
2012,03,26,11,28,7.70
2012,03,26,11,29,7.70
2012,03,26,11,30,7.70
2012,03,26,11,31,7.70
2012,03,26,11,32,7.80
2012,03,26,11,33,7.80
2012,03,26,11,34,7.80
2012,03,26,11,35,7.90
2012,03,26,11,36,7.90
2012,03,26,11,37,7.90
2012,03,26,11,38,8.00
2012,03,26,11,39,8.00
2012,03,26,11,40,8.10
2012,03,26,11,41,8.10
2012,03,26,11,42,8.10
2012,03,26,11,43,8.10
2012,03,26,11,44,8.10
2012,03,26,11,45,8.10
2012,03,26,11,46,8.00
2012,03,26,11,47,8.00
2012,03,26,11,48,8.00
2012,03,26,11,49,8.10
2012,03,26,11,50,8.10
2012,03,26,11,51,8.10
2012,03,26,11,52,8.10
2012,03,26,11,53,8.10
2012,03,26,11,54,8.10
2012,03,26,11,55,8.20
2012,03,26,11,56,8.20
2012,03,26,11,57,8.20
2012,03,26,11,58,8.20
2012,03,26,11,59,8.30
2012,03,26,12,00,8.30
2012,03,26,12,01,8.30
2012,03,26,12,02,8.30
2012,03,26,12,03,8.30
2012,03,26,12,04,8.40
2012,03,26,12,05,8.40
2012,03,26,12,06,8.40
2012,03,26,12,07,8.40
2012,03,26,12,08,8.40
2012,03,26,12,09,8.40
2012,03,26,12,10,8.40
2012,03,26,12,11,8.40
2012,03,26,12,12,8.50
2012,03,26,12,13,8.50
2012,03,26,12,14,8.60
2012,03,26,12,15,8.60
2012,03,26,12,16,8.60
2012,03,26,12,17,8.70
2012,03,26,12,18,8.70
2012,03,26,12,19,8.70
2012,03,26,12,20,8.70
2012,03,26,12,21,8.70
2012,03,26,12,22,8.70
2012,03,26,12,23,8.70
2012,03,26,12,24,8.70
2012,03,26,12,25,8.70
2012,03,26,12,26,8.70
2012,03,26,12,27,8.80
2012,03,26,12,28,8.80
2012,03,26,12,29,8.80
2012,03,26,12,30,8.80
2012,03,26,12,31,8.80
2012,03,26,12,32,8.80
2012,03,26,12,33,8.80
2012,03,26,12,34,8.80
2012,03,26,12,35,8.80
2012,03,26,12,36,8.80
2012,03,26,12,37,8.80
2012,03,26,12,38,8.80
2012,03,26,12,39,8.80
2012,03,26,12,40,8.80
2012,03,26,12,41,8.80
2012,03,26,12,42,8.80
2012,03,26,12,43,8.80
2012,03,26,12,44,8.90
2012,03,26,12,45,8.90
2012,03,26,12,46,8.90
2012,03,26,12,47,8.90
2012,03,26,12,48,8.90
2012,03,26,12,49,8.90
2012,03,26,12,50,8.90
2012,03,26,12,51,8.90
2012,03,26,12,52,8.90
2012,03,26,12,53,8.90
2012,03,26,12,54,8.90
2012,03,26,12,55,8.90
2012,03,26,12,56,8.90
2012,03,26,12,57,8.90
2012,03,26,12,58,8.90
2012,03,26,12,59,8.90
2012,03,26,13,00,8.90
2012,03,26,13,01,8.90
2012,03,26,13,02,8.90
2012,03,26,13,03,8.90
2012,03,26,13,04,8.90
2012,03,26,13,05,8.90
2012,03,26,13,06,8.90
2012,03,26,13,07,8.90
2012,03,26,13,08,8.90
2012,03,26,13,09,8.90
2012,03,26,13,10,8.90
2012,03,26,13,11,8.90
2012,03,26,13,12,8.90
2012,03,26,13,13,8.90
2012,03,26,13,14,8.90
2012,03,26,13,15,8.90
2012,03,26,13,16,8.90
2012,03,26,13,17,8.90
2012,03,26,13,18,8.90
2012,03,26,13,19,9.00
2012,03,26,13,20,9.00
2012,03,26,13,21,9.00
2012,03,26,13,22,9.00
2012,03,26,13,23,9.10
2012,03,26,13,24,9.10
2012,03,26,13,25,9.10
2012,03,26,13,26,9.10
2012,03,26,13,27,9.20
2012,03,26,13,28,9.20
2012,03,26,13,29,9.20
2012,03,26,13,30,9.20
2012,03,26,13,31,9.20
2012,03,26,13,32,9.20
2012,03,26,13,33,9.20
2012,03,26,13,34,9.20
2012,03,26,13,35,9.20
2012,03,26,13,36,9.30
2012,03,26,13,37,9.30
2012,03,26,13,38,9.30
2012,03,26,13,39,9.30
2012,03,26,13,40,9.30
2012,03,26,13,41,9.30
2012,03,26,13,42,9.30
2012,03,26,13,43,9.30
2012,03,26,13,44,9.30
2012,03,26,13,45,9.30
2012,03,26,13,46,9.30
2012,03,26,13,47,9.30
2012,03,26,13,48,9.30
2012,03,26,13,49,9.40
2012,03,26,13,50,9.40
2012,03,26,13,51,9.40
2012,03,26,13,52,9.40
2012,03,26,13,53,9.40
2012,03,26,13,54,9.40
2012,03,26,13,55,9.40
2012,03,26,13,56,9.40
2012,03,26,13,57,9.40
2012,03,26,13,58,9.40
2012,03,26,13,59,9.40
2012,03,26,14,00,9.40
2012,03,26,14,01,9.40
2012,03,26,14,02,9.40
2012,03,26,14,03,9.40
2012,03,26,14,04,9.50
2012,03,26,14,05,9.50
2012,03,26,14,06,9.50
2012,03,26,14,07,9.60
2012,03,26,14,08,9.60
2012,03,26,14,09,9.60
2012,03,26,14,10,9.60
2012,03,26,14,11,9.70
2012,03,26,14,12,9.70
2012,03,26,14,13,9.70
2012,03,26,14,14,9.70
2012,03,26,14,15,9.70
2012,03,26,14,16,9.70
2012,03,26,14,17,9.70
2012,03,26,14,18,9.70
2012,03,26,14,19,9.80
2012,03,26,14,20,9.80
2012,03,26,14,21,9.80
2012,03,26,14,22,9.90
2012,03,26,14,23,9.90
2012,03,26,14,24,10.00
2012,03,26,14,25,10.10
2012,03,26,14,26,10.10
2012,03,26,14,27,10.10
2012,03,26,14,28,10.10
2012,03,26,14,29,10.10
2012,03,26,14,30,10.10
2012,03,26,14,31,10.10
2012,03,26,14,32,10.10
2012,03,26,14,33,10.10
2012,03,26,14,34,10.10
2012,03,26,14,35,10.20
2012,03,26,14,36,10.20
2012,03,26,14,37,10.20
2012,03,26,14,38,10.20
2012,03,26,14,39,10.20
2012,03,26,14,40,10.20
2012,03,26,14,41,10.20
2012,03,26,14,42,10.20
2012,03,26,14,43,10.20
2012,03,26,14,44,10.20
2012,03,26,14,45,10.20
2012,03,26,14,46,10.20
2012,03,26,14,47,10.30
2012,03,26,14,48,10.30
2012,03,26,14,49,10.30
2012,03,26,14,50,10.30
2012,03,26,14,51,10.40
2012,03,26,14,52,10.40
2012,03,26,14,53,10.40
2012,03,26,14,54,10.40
2012,03,26,14,55,10.30
2012,03,26,14,56,10.30
2012,03,26,14,57,10.20
2012,03,26,14,58,10.20
2012,03,26,14,59,10.20
2012,03,26,15,00,10.10
2012,03,26,15,01,10.00
2012,03,26,15,02,10.00
2012,03,26,15,03,10.00
2012,03,26,15,04,10.00
2012,03,26,15,05,10.00
2012,03,26,15,06,10.10
2012,03,26,15,07,10.10
2012,03,26,15,08,10.10
2012,03,26,15,09,10.10
2012,03,26,15,10,10.10
2012,03,26,15,11,10.00
2012,03,26,15,12,10.00
2012,03,26,15,13,10.00
2012,03,26,15,14,10.00
2012,03,26,15,15,10.00
2012,03,26,15,16,10.10
2012,03,26,15,17,10.10
2012,03,26,15,18,10.10
2012,03,26,15,19,10.10
2012,03,26,15,20,10.10
2012,03,26,15,21,10.10
2012,03,26,15,22,10.10
2012,03,26,15,23,10.10
2012,03,26,15,24,10.10
2012,03,26,15,25,10.10
2012,03,26,15,26,10.10
2012,03,26,15,27,10.10
2012,03,26,15,28,10.10
2012,03,26,15,29,10.10
2012,03,26,15,30,10.10
2012,03,26,15,31,10.10
2012,03,26,15,32,10.10
2012,03,26,15,33,10.10
2012,03,26,15,34,10.20
2012,03,26,15,35,10.20
2012,03,26,15,36,10.20
2012,03,26,15,37,10.30
2012,03,26,15,38,10.30
2012,03,26,15,39,10.30
2012,03,26,15,40,10.40
2012,03,26,15,41,10.40
2012,03,26,15,42,10.40
2012,03,26,15,43,10.40
2012,03,26,15,44,10.40
2012,03,26,15,45,10.40
2012,03,26,15,46,10.50
2012,03,26,15,47,10.50
2012,03,26,15,48,10.50
2012,03,26,15,49,10.50
2012,03,26,15,50,10.60
2012,03,26,15,51,10.60
2012,03,26,15,52,10.70
2012,03,26,15,53,10.70
2012,03,26,15,54,10.80
2012,03,26,15,55,10.80
2012,03,26,15,56,10.90
2012,03,26,15,57,11.00
2012,03,26,15,58,11.10
2012,03,26,15,59,11.10
2012,03,26,16,00,11.10
2012,03,26,16,01,11.20
2012,03,26,16,02,11.20
2012,03,26,16,03,11.20
2012,03,26,16,04,11.30
2012,03,26,16,05,11.30
2012,03,26,16,06,11.30
2012,03,26,16,07,11.30
2012,03,26,16,08,11.30
2012,03,26,16,09,11.30
2012,03,26,16,10,11.30
2012,03,26,16,11,11.30
2012,03,26,16,12,11.30
2012,03,26,16,13,11.30
2012,03,26,16,14,11.30
2012,03,26,16,15,11.30
2012,03,26,16,16,11.20
2012,03,26,16,17,11.20
2012,03,26,16,18,11.20
2012,03,26,16,19,11.10
2012,03,26,16,20,11.10
2012,03,26,16,21,11.10
2012,03,26,16,22,11.00
2012,03,26,16,23,11.00
2012,03,26,16,24,11.00
2012,03,26,16,25,10.90
2012,03,26,16,26,10.90
2012,03,26,16,27,10.80
2012,03,26,16,28,10.80
2012,03,26,16,29,10.70
2012,03,26,16,30,10.70
2012,03,26,16,31,10.70
2012,03,26,16,32,10.70
2012,03,26,16,33,10.70
2012,03,26,16,34,10.60
2012,03,26,16,35,10.60
2012,03,26,16,36,10.60
2012,03,26,16,37,10.60
2012,03,26,16,38,10.50
2012,03,26,16,39,10.40
2012,03,26,16,40,10.40
2012,03,26,16,41,10.40
2012,03,26,16,42,10.30
2012,03,26,16,43,10.30
2012,03,26,16,44,10.30
2012,03,26,16,45,10.30
2012,03,26,16,46,10.30
2012,03,26,16,47,10.30
2012,03,26,16,48,10.30
2012,03,26,16,49,10.30
2012,03,26,16,50,10.30
2012,03,26,16,51,10.30
2012,03,26,16,52,10.30
2012,03,26,16,53,10.30
2012,03,26,16,54,10.30
2012,03,26,16,55,10.30
2012,03,26,16,56,10.30
2012,03,26,16,57,10.30
2012,03,26,16,58,10.30
2012,03,26,16,59,10.30
2012,03,26,17,00,10.30
2012,03,26,17,01,10.30
2012,03,26,17,02,10.30
2012,03,26,17,03,10.40
2012,03,26,17,04,10.40
2012,03,26,17,05,10.40
2012,03,26,17,06,10.40
2012,03,26,17,07,10.40
2012,03,26,17,08,10.40
2012,03,26,17,09,10.40
2012,03,26,17,10,10.40
2012,03,26,17,11,10.40
2012,03,26,17,12,10.40
2012,03,26,17,13,10.40
2012,03,26,17,14,10.50
2012,03,26,17,15,10.50
2012,03,26,17,16,10.50
2012,03,26,17,17,10.60
2012,03,26,17,18,10.60
2012,03,26,17,19,10.60
2012,03,26,17,20,10.60
2012,03,26,17,21,10.60
2012,03,26,17,22,10.60
2012,03,26,17,23,10.70
2012,03,26,17,24,10.70
2012,03,26,17,25,10.70
2012,03,26,17,26,10.60
2012,03,26,17,27,10.60
2012,03,26,17,28,10.50
2012,03,26,17,29,10.40
2012,03,26,17,30,10.30
2012,03,26,17,31,10.20
2012,03,26,17,32,10.20
2012,03,26,17,33,10.20
2012,03,26,17,34,10.20
2012,03,26,17,35,10.20
2012,03,26,17,36,10.20
2012,03,26,17,37,10.30
2012,03,26,17,38,10.30
2012,03,26,17,39,10.40
2012,03,26,17,40,10.60
2012,03,26,17,41,10.70
2012,03,26,17,42,10.80
2012,03,26,17,43,10.90
2012,03,26,17,44,11.00
2012,03,26,17,45,11.10
2012,03,26,17,46,11.10
2012,03,26,17,47,11.20
2012,03,26,17,48,11.20
2012,03,26,17,49,11.20
2012,03,26,17,50,11.10
2012,03,26,17,51,11.10
2012,03,26,17,52,11.10
2012,03,26,17,53,11.10
2012,03,26,17,54,11.00
2012,03,26,17,55,11.00
2012,03,26,17,56,11.00
2012,03,26,17,57,11.00